N501NM BIRK-BIAR

Flight info

Callsign N501NM
Flight time 0h 37m
Altitude 13500
Route LUSUG DCT REKVA DCT ASKUR
Aircraft CL60/M-SBDE1E2E3FGHIJ4J5J7M3RWXYZ/LB1V1D1

Departure

Time 2026-04-24 22:03
Airport Reykjavík Domestic Airport (BIRK)

Arrival

Time 2026-04-24 22:40
Airport Akureyri International Airport (BIAR)
Time Latitude Longitude Altitude Speed Heading
2026-04-24 21:03 64.13085 -21.93496 33 ft 0 kts 43°
2026-04-24 21:04 64.13084 -21.93496 33 ft 0 kts 41°
2026-04-24 21:10 64.13084 -21.93495 33 ft 0 kts 32°
2026-04-24 21:11 64.13083 -21.93495 33 ft 0 kts 31°
2026-04-24 21:15 64.13082 -21.93495 33 ft 0 kts 26°
2026-04-24 21:58 64.13087 -21.93492 32 ft 2 kts
2026-04-24 21:58 64.13123 -21.93532 33 ft 8 kts 332°
2026-04-24 21:59 64.13186 -21.93560 36 ft 10 kts 356°
2026-04-24 21:59 64.13262 -21.93574 39 ft 11 kts 355°
2026-04-24 21:59 64.13349 -21.93592 42 ft 13 kts 355°
2026-04-24 21:59 64.13421 -21.93605 44 ft 9 kts 356°
2026-04-24 22:00 64.13490 -21.93616 45 ft 9 kts 355°
2026-04-24 22:00 64.13548 -21.93637 45 ft 8 kts 343°
2026-04-24 22:00 64.13582 -21.93691 45 ft 8 kts 314°
2026-04-24 22:00 64.13625 -21.93800 45 ft 10 kts 303°
2026-04-24 22:01 64.13607 -21.93905 44 ft 9 kts 176°
2026-04-24 22:01 64.13557 -21.93885 43 ft 4 kts 172°
2026-04-24 22:01 64.13555 -21.93885 43 ft 0 kts 172°
2026-04-24 22:02 64.13552 -21.93884 43 ft 4 kts 172°
2026-04-24 22:02 64.13209 -21.93825 33 ft 105 kts 175°
2026-04-24 22:02 64.12221 -21.93648 350 ft 167 kts 175°
2026-04-24 22:03 64.11025 -21.93810 1395 ft 188 kts 196°
2026-04-24 22:03 64.09941 -21.95608 2376 ft 215 kts 230°
2026-04-24 22:03 64.09454 -21.98899 3043 ft 227 kts 265°
2026-04-24 22:03 64.09746 -22.02381 3530 ft 227 kts 296°
2026-04-24 22:04 64.10799 -22.04948 3853 ft 223 kts 333°
2026-04-24 22:04 64.12241 -22.05763 4258 ft 218 kts
2026-04-24 22:04 64.13711 -22.05117 4682 ft 215 kts 22°
2026-04-24 22:04 64.15018 -22.03489 5095 ft 213 kts 34°
2026-04-24 22:05 64.16196 -22.01477 5478 ft 216 kts 39°
2026-04-24 22:05 64.17379 -21.99310 5852 ft 216 kts 37°
2026-04-24 22:05 64.18603 -21.97403 6244 ft 216 kts 29°
2026-04-24 22:05 64.19936 -21.95799 6668 ft 217 kts 21°
2026-04-24 22:06 64.21349 -21.94650 7098 ft 216 kts 11°
2026-04-24 22:06 64.22816 -21.94247 7537 ft 215 kts 358°
2026-04-24 22:06 64.24292 -21.94554 8020 ft 214 kts 349°
2026-04-24 22:06 64.25748 -21.95193 8579 ft 215 kts 347°
2026-04-24 22:07 64.27205 -21.95882 9139 ft 217 kts 347°
2026-04-24 22:07 64.28697 -21.96574 9652 ft 218 kts 346°
2026-04-24 22:07 64.30151 -21.97370 10109 ft 219 kts 344°
2026-04-24 22:07 64.31639 -21.98197 10547 ft 220 kts 345°
2026-04-24 22:08 64.33126 -21.98970 10961 ft 222 kts 347°
2026-04-24 22:08 64.34662 -21.99216 11255 ft 228 kts
2026-04-24 22:08 64.36187 -21.98083 11321 ft 233 kts 27°
2026-04-24 22:08 64.37461 -21.95754 11332 ft 235 kts 44°
2026-04-24 22:09 64.38483 -21.92848 11495 ft 234 kts 51°
2026-04-24 22:09 64.39384 -21.89706 11759 ft 237 kts 55°
2026-04-24 22:09 64.40224 -21.86447 12130 ft 239 kts 58°
2026-04-24 22:09 64.40985 -21.82998 12570 ft 242 kts 62°
2026-04-24 22:10 64.41644 -21.79396 13008 ft 246 kts 66°
2026-04-24 22:10 64.42211 -21.75677 13386 ft 249 kts 70°
2026-04-24 22:10 64.42665 -21.71602 13788 ft 281 kts 75°
2026-04-24 22:10 64.42902 -21.66731 14012 ft 328 kts 86°
2026-04-24 22:11 64.42936 -21.61197 13962 ft 354 kts 88°
2026-04-24 22:11 64.42921 -21.55535 13864 ft 352 kts 88°
2026-04-24 22:11 64.42902 -21.49931 13867 ft 351 kts 88°
2026-04-24 22:11 64.42902 -21.44301 13826 ft 350 kts 88°
2026-04-24 22:12 64.42921 -21.38666 13771 ft 350 kts 87°
2026-04-24 22:12 64.42939 -21.33074 13672 ft 349 kts 88°
2026-04-24 22:12 64.42990 -21.27441 13619 ft 347 kts 87°
2026-04-24 22:12 64.43038 -21.21929 13710 ft 347 kts 86°
2026-04-24 22:13 64.43175 -21.16307 13901 ft 348 kts 83°
2026-04-24 22:13 64.43436 -21.10828 14168 ft 350 kts 81°
2026-04-24 22:13 64.43774 -21.05217 14153 ft 353 kts 79°
2026-04-24 22:13 64.44123 -20.99617 14134 ft 352 kts 81°
2026-04-24 22:14 64.44392 -20.93995 13985 ft 353 kts 83°
2026-04-24 22:14 64.44481 -20.88320 13756 ft 353 kts 89°
2026-04-24 22:14 64.44559 -20.82761 13674 ft 346 kts 81°
2026-04-24 22:14 64.45177 -20.77450 13812 ft 343 kts 63°
2026-04-24 22:15 64.46468 -20.72818 13930 ft 341 kts 46°
2026-04-24 22:15 64.48074 -20.68838 14097 ft 342 kts 44°
2026-04-24 22:15 64.49688 -20.64719 13919 ft 344 kts 46°
2026-04-24 22:15 64.51251 -20.60566 13806 ft 341 kts 46°
2026-04-24 22:16 64.52814 -20.56475 13749 ft 340 kts 45°
2026-04-24 22:16 64.54367 -20.52385 13732 ft 340 kts 46°
2026-04-24 22:16 64.55883 -20.48260 13816 ft 339 kts 47°
2026-04-24 22:16 64.57372 -20.44015 13854 ft 343 kts 48°
2026-04-24 22:17 64.58875 -20.39688 13739 ft 343 kts 47°
2026-04-24 22:17 64.60369 -20.35433 13679 ft 340 kts 47°
2026-04-24 22:17 64.61871 -20.31150 13735 ft 339 kts 48°
2026-04-24 22:17 64.63354 -20.26928 13932 ft 341 kts 48°
2026-04-24 22:18 64.64874 -20.22597 13995 ft 345 kts 48°
2026-04-24 22:18 64.66378 -20.18326 13831 ft 345 kts 47°
2026-04-24 22:18 64.67888 -20.14033 13645 ft 341 kts 48°
2026-04-24 22:18 64.69398 -20.09757 13697 ft 339 kts 47°
2026-04-24 22:19 64.70950 -20.05596 13878 ft 342 kts 45°
2026-04-24 22:19 64.72514 -20.01458 13810 ft 345 kts 45°
2026-04-24 22:19 64.74110 -19.97312 13695 ft 342 kts 45°
2026-04-24 22:19 64.75688 -19.93227 13652 ft 341 kts 44°
2026-04-24 22:20 64.77293 -19.89159 13646 ft 340 kts 44°
2026-04-24 22:20 64.78896 -19.85066 13663 ft 341 kts 44°
2026-04-24 22:20 64.80480 -19.80915 13676 ft 341 kts 45°
2026-04-24 22:20 64.82063 -19.76817 13747 ft 341 kts 44°
2026-04-24 22:21 64.83655 -19.72664 13679 ft 343 kts 45°
2026-04-24 22:21 64.85184 -19.68493 13646 ft 342 kts 46°
2026-04-24 22:21 64.86716 -19.64197 13670 ft 341 kts 47°
2026-04-24 22:21 64.88218 -19.59988 13848 ft 341 kts 46°
2026-04-24 22:22 64.89743 -19.55683 14046 ft 344 kts 46°
2026-04-24 22:22 64.91280 -19.51329 14088 ft 346 kts 47°
2026-04-24 22:22 64.92789 -19.46963 14097 ft 344 kts 47°
2026-04-24 22:22 64.94276 -19.42599 14099 ft 344 kts 47°
2026-04-24 22:23 64.95758 -19.38171 14037 ft 344 kts 47°
2026-04-24 22:23 64.97227 -19.33750 13986 ft 343 kts 48°
2026-04-24 22:23 64.98711 -19.29376 13900 ft 342 kts 47°
2026-04-24 22:23 65.00214 -19.25051 13807 ft 341 kts 47°
2026-04-24 22:24 65.01724 -19.20760 13722 ft 341 kts 47°
2026-04-24 22:24 65.03203 -19.16511 13615 ft 326 kts 47°
2026-04-24 22:24 65.04606 -19.12443 13518 ft 308 kts 47°
2026-04-24 22:24 65.05878 -19.08703 13747 ft 283 kts 47°
2026-04-24 22:25 65.07094 -19.05084 13532 ft 276 kts 47°
2026-04-24 22:25 65.08272 -19.01597 13301 ft 271 kts 46°
2026-04-24 22:25 65.09467 -18.98148 12658 ft 281 kts 46°
2026-04-24 22:25 65.10722 -18.94518 12460 ft 272 kts 46°
2026-04-24 22:26 65.11921 -18.91053 12158 ft 269 kts 46°
2026-04-24 22:26 65.13088 -18.87698 12033 ft 260 kts 46°
2026-04-24 22:26 65.14227 -18.84355 11532 ft 266 kts 47°
2026-04-24 22:26 65.15403 -18.80925 11256 ft 261 kts 47°
2026-04-24 22:27 65.16532 -18.77629 10906 ft 262 kts 47°
2026-04-24 22:27 65.17657 -18.74238 10456 ft 265 kts 49°
2026-04-24 22:27 65.18765 -18.70795 10225 ft 258 kts 49°
2026-04-24 22:27 65.19850 -18.67363 9697 ft 262 kts 51°
2026-04-24 22:28 65.20905 -18.63898 9303 ft 259 kts 51°
2026-04-24 22:28 65.21936 -18.60457 9041 ft 252 kts 52°
2026-04-24 22:28 65.22934 -18.57037 8659 ft 249 kts 52°
2026-04-24 22:28 65.23885 -18.53818 8650 ft 225 kts 53°
2026-04-24 22:29 65.25775 -18.47593 7731 ft 235 kts 51°
2026-04-24 22:29 65.26749 -18.44651 7484 ft 220 kts 49°
2026-04-24 22:29 65.27710 -18.41953 7138 ft 213 kts 48°
2026-04-24 22:30 65.28661 -18.39411 6991 ft 195 kts 47°
2026-04-24 22:30 65.29511 -18.37049 6675 ft 191 kts 50°
2026-04-24 22:30 65.30380 -18.34706 6330 ft 178 kts 48°
2026-04-24 22:30 65.31221 -18.32669 5946 ft 168 kts 44°
2026-04-24 22:31 65.32151 -18.31146 5627 ft 160 kts 31°
2026-04-24 22:31 65.33104 -18.29796 5250 ft 160 kts 32°
2026-04-24 22:31 65.34078 -18.28671 4957 ft 156 kts 25°
2026-04-24 22:31 65.35095 -18.27827 4848 ft 154 kts 17°
2026-04-24 22:32 65.36154 -18.27192 4729 ft 155 kts 18°
2026-04-24 22:32 65.37158 -18.26608 5004 ft 153 kts 15°
2026-04-24 22:32 65.38213 -18.26101 5409 ft 157 kts 12°
2026-04-24 22:32 65.39309 -18.25584 5385 ft 164 kts 14°
2026-04-24 22:33 65.40394 -18.24917 5112 ft 159 kts 20°
2026-04-24 22:33 65.41442 -18.24117 5014 ft 158 kts 20°
2026-04-24 22:33 65.42459 -18.23201 4887 ft 157 kts 24°
2026-04-24 22:33 65.43469 -18.22219 4763 ft 157 kts 24°
2026-04-24 22:34 65.44474 -18.21203 4495 ft 157 kts 27°
2026-04-24 22:34 65.45474 -18.20184 4249 ft 154 kts 25°
2026-04-24 22:34 65.46467 -18.19242 4135 ft 155 kts 25°
2026-04-24 22:34 65.47457 -18.18198 3940 ft 154 kts 27°
2026-04-24 22:35 65.48418 -18.17117 3759 ft 152 kts 28°
2026-04-24 22:35 65.49387 -18.16096 3666 ft 153 kts 26°
2026-04-24 22:35 65.50382 -18.15130 3440 ft 153 kts 25°
2026-04-24 22:35 65.51376 -18.14302 3148 ft 152 kts 21°
2026-04-24 22:36 65.52364 -18.13439 2965 ft 149 kts 28°
2026-04-24 22:36 65.53291 -18.12379 2830 ft 149 kts 30°
2026-04-24 22:36 65.54192 -18.11159 2615 ft 148 kts 34°
2026-04-24 22:36 65.55076 -18.09865 2356 ft 148 kts 35°
2026-04-24 22:37 65.55905 -18.08484 2159 ft 146 kts 40°
2026-04-24 22:37 65.56838 -18.07548 1918 ft 149 kts 15°
2026-04-24 22:37 65.57841 -18.07075 1668 ft 139 kts 16°
2026-04-24 22:37 65.58737 -18.06600 1318 ft 128 kts 15°
2026-04-24 22:38 65.59609 -18.06190 888 ft 128 kts 13°
2026-04-24 22:38 65.60465 -18.06218 535 ft 124 kts 355°
2026-04-24 22:38 65.61297 -18.06479 425 ft 120 kts 356°
2026-04-24 22:38 65.62138 -18.06675 444 ft 123 kts 358°
2026-04-24 22:39 65.62991 -18.06818 315 ft 123 kts 358°
2026-04-24 22:39 65.63844 -18.06916 166 ft 123 kts 359°
2026-04-24 22:39 65.64696 -18.07026 2 ft 123 kts 358°
2026-04-24 22:39 65.65478 -18.07147 -30 ft 97 kts 356°
2026-04-24 22:40 65.65925 -18.07232 -30 ft 25 kts 353°
2026-04-24 22:40 65.66049 -18.07264 -30 ft 12 kts 354°
2026-04-24 22:40 65.66134 -18.07251 -30 ft 6 kts
2026-04-24 22:40 65.66154 -18.07275 -30 ft 0 kts 292°
2026-04-24 22:41 65.66154 -18.07277 -30 ft 0 kts 292°
2026-04-24 22:41 65.66155 -18.07286 -30 ft 2 kts 281°
2026-04-24 22:42 65.66112 -18.07295 -30 ft 11 kts 166°
2026-04-24 22:42 65.66024 -18.07266 -30 ft 13 kts 175°
2026-04-24 22:42 65.65919 -18.07243 -30 ft 17 kts 174°
2026-04-24 22:42 65.65790 -18.07214 -30 ft 19 kts 178°
2026-04-24 22:43 65.65657 -18.07196 -30 ft 19 kts 174°
2026-04-24 22:43 65.65536 -18.07172 -30 ft 13 kts 181°
2026-04-24 22:43 65.65480 -18.07267 -31 ft 9 kts 257°
2026-04-24 22:43 65.65475 -18.07372 -31 ft 6 kts 264°
2026-04-24 22:44 65.65472 -18.07444 -31 ft 3 kts 264°
2026-04-24 22:44 65.65475 -18.07476 -31 ft 2 kts 314°
2026-04-24 22:44 65.65482 -18.07488 -31 ft 0 kts 342°
2026-04-24 22:44 65.65489 -18.07492 -31 ft 1 kts 349°
2026-04-24 22:45 65.65491 -18.07492 -31 ft 0 kts 349°
2026-04-24 22:51 65.65492 -18.07492 -31 ft 0 kts 348°
2026-04-24 22:54 65.65492 -18.07493 -30 ft 0 kts 349°